Weather History for Mullan Pass, ID

Change the Weather History Date:

Saturday, February 9, 2013

  Actual Average (K3TH) Record (K3TH)
Temperature  
Mean Temperature 22 °F -  
Max Temperature 24 °F 35 °F 43 °F (1998)
Min Temperature 21 °F 25 °F 10 °F (2001)
Degree Days  
Heating Degree Days 42    
Moisture  
Dew Point 19 °F    
Average Humidity 85    
Maximum Humidity 89    
Minimum Humidity 77    
Precipitation  
Precipitation 0.00 in - - ()
Sea Level Pressure  
Sea Level Pressure 29.95 in    
Wind  
Wind Speed 4 mph (North)    
Max Wind Speed 8 mph    
Max Gust Speed -    
Visibility 1 miles    
Events Fog , Rain , Snow    
Averages and records for this station are not official NWS values.
T = Trace of Precipitation, MM = Missing Value Source: NWS Daily Summary

Daily Weather History Graph

Daily Weather History Graph

Search for Another Location

Airport:

Trip Planner

Search our weather history database for the weather conditions in past years. The results will help you decide how hot, cold, wet, or windy it might be!

Date:

Astronomy

Feb. 09, 2013 Rise Set
Actual Time 6:57 AM PST 4:57 PM PST
Civil Twilight 6:24 AM PST 5:29 PM PST
Nautical Twilight 5:48 AM PST 6:05 PM PST
Astronomical Twilight 5:13 AM PST 6:41 PM PST
Moon 6:10 AM PST (2/9) 4:47 PM PST (2/9)
Length of Visible Light 11h 04m
Length of Day
10h 00m
Waning Crescent, 0% of the Moon is Illuminated
Feb 9
Waning Crescent
Feb 9
New
Feb 17
First Quarter
Feb 25
Full
Mar 4
Last Quarter

Hourly Weather History & Observations

Time (PST) Temp. Windchill Dew Point Humidity Pressure Visibility Wind Dir Wind Speed Gust Speed Precip Events Conditions
12:21 AM 23.0 °F 18.4 °F 19.4 °F 86% 29.90 in 0.5 mi NNW 3.5 mph - 0.00 in Fog , Snow Light Snow
12:38 AM 23.0 °F 18.4 °F 19.4 °F 86% 29.90 in 0.5 mi Variable 3.5 mph - 0.00 in Fog , Rain Light Freezing Rain
12:51 AM 23.0 °F - 19.4 °F 86% 29.90 in 0.2 mi Calm Calm - 0.00 in Fog , Rain Light Freezing Rain
12:53 AM 23.0 °F - 19.9 °F 88% 30.01 in 0.5 mi Calm Calm - 0.00 in Fog , Rain Light Freezing Rain
1:19 AM 23.0 °F 17.0 °F 19.4 °F 86% 29.90 in 0.2 mi Variable 4.6 mph - 0.00 in Fog , Snow Light Snow
1:37 AM 23.0 °F 18.4 °F 19.4 °F 86% 29.90 in 0.5 mi Variable 3.5 mph - 0.00 in Fog Light Freezing Fog
1:53 AM 23.0 °F 18.4 °F 19.0 °F 85% 30.01 in 0.5 mi Variable 3.5 mph - 0.00 in Fog Light Freezing Fog
2:12 AM 23.0 °F 15.8 °F 19.4 °F 86% 29.89 in 0.2 mi NW 5.8 mph - N/A Fog Light Freezing Fog
2:53 AM 23.0 °F 17.0 °F 19.0 °F 85% 29.99 in 0.2 mi NW 4.6 mph - 0.00 in Fog Light Freezing Fog
3:53 AM 23.0 °F 17.0 °F 19.0 °F 85% 30.00 in 0.5 mi Variable 4.6 mph - N/A Fog Light Freezing Fog
4:01 AM 23.0 °F 18.4 °F 19.4 °F 86% 29.87 in 0.2 mi Variable 3.5 mph - N/A Fog Light Freezing Fog
4:14 AM 23.0 °F 18.4 °F 19.4 °F 86% 29.87 in 0.5 mi Variable 3.5 mph - N/A Fog Light Freezing Fog
4:24 AM 23.0 °F 15.8 °F 19.4 °F 86% 29.87 in 0.2 mi Variable 5.8 mph - N/A Fog Light Freezing Fog
4:53 AM 23.0 °F 15.8 °F 19.0 °F 85% 30.00 in 0.5 mi Variable 5.8 mph - N/A Fog Light Freezing Fog
5:04 AM 23.0 °F 17.0 °F 19.4 °F 86% 29.87 in 0.2 mi Variable 4.6 mph - N/A Fog Light Freezing Fog
5:18 AM 21.2 °F 14.9 °F 17.6 °F 86% 29.87 in 0.5 mi Variable 4.6 mph - N/A Fog Light Freezing Fog
5:53 AM 21.9 °F 17.2 °F 18.0 °F 85% 30.00 in 0.8 mi Variable 3.5 mph - N/A   Mist
6:14 AM 21.2 °F - 17.6 °F 86% 29.86 in 1.0 mi Calm Calm - N/A   Mist
6:23 AM 21.2 °F 16.4 °F 17.6 °F 86% 29.86 in 0.8 mi Variable 3.5 mph - N/A   Mist
6:53 AM 21.9 °F 15.7 °F 18.0 °F 85% 30.00 in 0.2 mi NNW 4.6 mph - N/A Fog Light Freezing Fog
7:03 AM 21.2 °F 13.6 °F 17.6 °F 86% 29.87 in 0.8 mi NNW 5.8 mph - N/A   Mist
7:53 AM 21.9 °F 15.7 °F 18.0 °F 85% 30.01 in 0.2 mi Variable 4.6 mph - N/A Fog Light Freezing Fog
8:53 AM 21.9 °F 14.5 °F 18.0 °F 85% 30.03 in 0.2 mi Variable 5.8 mph - N/A Fog Light Freezing Fog
9:53 AM 23.0 °F 15.8 °F 19.0 °F 85% 30.01 in 0.2 mi Variable 5.8 mph - N/A Fog Light Freezing Fog
10:11 AM 23.0 °F 17.0 °F 19.4 °F 86% 29.85 in - Variable 4.6 mph - N/A   Overcast
10:33 AM 24.8 °F 20.5 °F 19.4 °F 80% 29.86 in 0.2 mi Variable 3.5 mph - N/A   Haze
10:53 AM 24.1 °F 17.0 °F 18.0 °F 77% 29.98 in 0.2 mi Variable 5.8 mph - N/A   Haze
11:53 AM 24.1 °F 15.2 °F 19.0 °F 81% 29.96 in 0.2 mi NNW 8.1 mph - N/A   Haze
12:09 PM 23.0 °F 14.7 °F 17.6 °F 80% 29.84 in 0.5 mi NNW 6.9 mph - N/A   Haze
12:19 PM 23.0 °F 14.7 °F 17.6 °F 80% 29.84 in 0.2 mi Variable 6.9 mph - N/A   Haze
12:53 PM 24.1 °F 17.0 °F 19.0 °F 81% 29.97 in 0.2 mi Variable 5.8 mph - N/A   Haze
1:26 PM 23.0 °F 17.0 °F 19.4 °F 86% 29.84 in - Variable 4.6 mph - N/A   Overcast
1:38 PM 23.0 °F 15.8 °F 19.4 °F 86% 29.84 in 0.2 mi Variable 5.8 mph - N/A Fog Light Freezing Fog
1:53 PM 24.1 °F 17.0 °F 19.0 °F 81% 29.96 in 0.2 mi Variable 5.8 mph - N/A   Haze
2:53 PM 23.0 °F 17.0 °F 19.0 °F 85% 29.99 in 0.2 mi NNW 4.6 mph - N/A Fog Light Freezing Fog
3:53 PM 23.0 °F 14.7 °F 19.0 °F 85% 30.00 in 0.2 mi Variable 6.9 mph - 0.00 in Fog Light Freezing Fog
4:53 PM 21.9 °F 13.4 °F 18.0 °F 85% 30.02 in 0.2 mi NNW 6.9 mph - N/A Fog Light Freezing Fog
5:03 PM 21.2 °F 13.6 °F 17.6 °F 86% 29.89 in 0.5 mi North 5.8 mph - N/A Fog Light Freezing Fog
5:38 PM 21.2 °F 13.6 °F 17.6 °F 86% 29.90 in 0.2 mi Variable 5.8 mph - N/A Fog Light Freezing Fog
5:53 PM 21.9 °F 17.2 °F 19.0 °F 89% 30.06 in 0.2 mi NNW 3.5 mph - N/A Fog Light Freezing Fog
6:53 PM 21.9 °F - 18.0 °F 85% 30.07 in 0.2 mi Calm Calm - N/A Fog Light Freezing Fog
7:53 PM 21.9 °F 15.7 °F 18.0 °F 85% 30.09 in 0.2 mi NNW 4.6 mph - N/A Fog Light Freezing Fog
8:36 PM 21.2 °F 14.9 °F 17.6 °F 86% 29.95 in 0.2 mi North 4.6 mph - N/A Fog Light Freezing Fog
8:40 PM 21.2 °F 16.4 °F 17.6 °F 86% 29.95 in 0.5 mi NNE 3.5 mph - N/A   Haze
8:43 PM 21.2 °F 16.4 °F 17.6 °F 86% 29.95 in 1.5 mi North 3.5 mph - N/A   Overcast
8:49 PM 21.2 °F 16.4 °F 17.6 °F 86% 29.96 in 3.0 mi NNE 3.5 mph - N/A   Haze
8:53 PM 21.9 °F 15.7 °F 17.1 °F 82% 30.11 in 4.0 mi NNE 4.6 mph - N/A   Haze
9:19 PM 23.0 °F 18.4 °F 17.6 °F 80% 29.96 in 9.0 mi Variable 3.5 mph - N/A   Overcast
9:45 PM 21.2 °F 13.6 °F 17.6 °F 86% 29.97 in 10.0 mi NNE 5.8 mph - N/A   Overcast
9:53 PM 21.9 °F 17.2 °F 18.0 °F 85% 30.12 in 10.0 mi North 3.5 mph - N/A   Overcast
10:53 PM 21.9 °F 17.2 °F 18.0 °F 85% 30.12 in 10.0 mi Variable 3.5 mph - N/A   Mostly Cloudy
11:53 PM 21.9 °F - 18.0 °F 85% 30.14 in 10.0 mi Calm Calm - N/A   Scattered Clouds